Location: Владивосток
(43.1151°N, 131.8856°E)
Time: 18:53:34
(UTC+10:00)

DUCHIFAT 1 - Pass Details

Date: 28 June 2022
Orbit: 580 x 596 km, 98.0° (Epoch: 09 August)

Event Time Altitude Azimuth Distance (km) Brightness Sun altitude
Rises 03:58:22 0° 10° (N) 2,839 ? -13.8°
Reaches altitude 10° 04:00:32 10° 9° (N) 1,936 ? -13.5°
Maximum altitude 04:04:43 72° 285° (WNW) 629 ? -13.0°
Enters shadow 04:07:44 18° 204° (SSW) 1,464 ? -12.7°
